Appleton, MN

3:54 AM CST on November 22, 2019 (GMT -0600)
Appleton Municipal

Weather History for KAQP - August, 2019

Change the Weather History Date:

Sunday, August 11, 2019

  Actual Average Record
Temperature  
Mean Temperature 72 °F -  
Max Temperature 78 °F 77 °F 87 °F (1999)
Min Temperature 66 °F 55 °F 42 °F (2004)
Cooling Degree Days 7    
Growing Degree Days 22 (Base 50)    
Moisture  
Dew Point 64 °F    
Average Humidity 78    
Maximum Humidity 94    
Minimum Humidity 57    
Precipitation  
Precipitation 0.00 in - - ()
Sea Level Pressure  
Sea Level Pressure 29.98 in    
Wind  
Wind Speed 1 mph (NE)    
Max Wind Speed 7 mph    
Max Gust Speed -    
Visibility 9 miles    
Events      
Averages and records for this station are not official NWS values.
T = Trace of Precipitation, MM = Missing Value Source: NWS Daily Summary

Daily Weather History Graph

Daily Weather History Graph

Search for Another Location

Airport or City:

Astronomy

Aug. 11, 2019 Rise Set
Actual Time 6:20 AM CDT 8:37 PM CDT
Civil Twilight 5:47 AM CDT 9:09 PM CDT
Nautical Twilight 5:07 AM CDT 9:50 PM CDT
Astronomical Twilight 4:21 AM CDT 10:35 PM CDT
Moon 6:24 PM CDT (8/11) 2:35 AM CDT (8/11)
Length of Visible Light 15h 22m
Length of Day
14h 17m
Waxing Gibbous, 87% of the Moon is Illuminated
Aug 11
Waxing Gibbous
Aug 15
Full
Aug 23
Last Quarter
Aug 30
New
Sep 5
First Quarter

Hourly Weather History & Observations

Time (CDT) Temp. Dew Point Humidity Pressure Visibility Wind Dir Wind Speed Gust Speed Precip Events Conditions
12:13 AM 66.2 °F 62.6 °F 88% 29.97 in 7.0 mi Calm Calm - N/A   Overcast
12:51 AM 66.2 °F 62.6 °F 88% 29.97 in 5.0 mi Calm Calm - N/A   Overcast
1:10 AM 66.2 °F 62.6 °F 88% 29.96 in 5.0 mi Calm Calm - N/A   Overcast
1:31 AM 66.2 °F 62.6 °F 88% 29.97 in 5.0 mi NNE 4.6 mph - N/A   Overcast
1:51 AM 66.2 °F 62.6 °F 88% 29.96 in 5.0 mi Calm Calm - N/A   Overcast
2:12 AM 66.2 °F 62.6 °F 88% 29.97 in 7.0 mi Calm Calm - N/A   Overcast
2:31 AM 66.2 °F 62.6 °F 88% 29.98 in 7.0 mi Calm Calm - N/A   Overcast
2:52 AM 66.2 °F 62.6 °F 88% 29.98 in 7.0 mi Calm Calm - N/A   Overcast
3:11 AM 66.2 °F 62.6 °F 88% 29.97 in 7.0 mi Calm Calm - N/A   Overcast
3:31 AM 66.2 °F 62.6 °F 88% 29.96 in 7.0 mi Calm Calm - N/A   Overcast
3:50 AM 66.2 °F 62.6 °F 88% 29.97 in 7.0 mi Calm Calm - N/A   Overcast
4:12 AM 66.2 °F 62.6 °F 88% 29.97 in 7.0 mi Calm Calm - N/A   Overcast
4:31 AM 66.2 °F 62.6 °F 88% 29.98 in 7.0 mi Calm Calm - N/A   Overcast
4:53 AM 66.2 °F 62.6 °F 88% 29.97 in 7.0 mi Calm Calm - N/A   Overcast
5:14 AM 66.2 °F 62.6 °F 88% 29.99 in 5.0 mi Calm Calm - N/A   Overcast
5:31 AM 66.2 °F 62.6 °F 88% 29.97 in 7.0 mi Calm Calm - N/A   Overcast
5:52 AM 66.2 °F 64.4 °F 94% 29.99 in 7.0 mi Calm Calm - N/A   Overcast
6:11 AM 66.2 °F 62.6 °F 88% 29.99 in 3.0 mi NNE 6.9 mph - N/A   Overcast
6:31 AM 66.2 °F 62.6 °F 88% 29.99 in 7.0 mi Calm Calm - N/A   Overcast
6:51 AM 66.2 °F 62.6 °F 88% 30.00 in 7.0 mi Calm Calm - N/A   Overcast
7:13 AM 66.2 °F 62.6 °F 88% 30.01 in 7.0 mi Calm Calm - N/A   Overcast
7:31 AM 66.2 °F 62.6 °F 88% 29.99 in 10.0 mi NNE 4.6 mph - N/A   Overcast
7:51 AM 66.2 °F 62.6 °F 88% 30.00 in 7.0 mi Calm Calm - N/A   Overcast
8:11 AM 66.2 °F 64.4 °F 94% 30.00 in 3.0 mi North 5.8 mph - N/A   Overcast
8:31 AM 66.2 °F 64.4 °F 94% 30.00 in 5.0 mi NNE 4.6 mph - N/A   Overcast
8:52 AM 68.0 °F 62.6 °F 83% 30.01 in 10.0 mi NNE 6.9 mph - N/A   Overcast
9:11 AM 68.0 °F 64.4 °F 88% 30.02 in 7.0 mi NNE 4.6 mph - N/A   Overcast
9:32 AM 69.8 °F 64.4 °F 83% 30.02 in 10.0 mi NNE 5.8 mph - N/A   Overcast
9:52 AM 69.8 °F 64.4 °F 83% 30.02 in 10.0 mi NNE 6.9 mph - N/A   Overcast
10:10 AM 71.6 °F 64.4 °F 78% 30.02 in 10.0 mi NNE 4.6 mph - N/A   Overcast
10:33 AM 71.6 °F 62.6 °F 73% 30.02 in 10.0 mi Calm Calm - N/A   Scattered Clouds
10:53 AM 73.4 °F 64.4 °F 73% 30.02 in 10.0 mi Calm Calm - N/A   Clear
11:11 AM 73.4 °F 64.4 °F 73% 30.02 in 10.0 mi ENE 3.5 mph - N/A   Scattered Clouds
11:31 AM 73.4 °F 62.6 °F 69% 30.03 in 10.0 mi Calm Calm - N/A   Scattered Clouds
11:51 AM 73.4 °F 62.6 °F 69% 30.02 in 10.0 mi ENE 4.6 mph - N/A   Scattered Clouds
12:13 PM 75.2 °F 64.4 °F 69% 30.03 in 10.0 mi NE 4.6 mph - N/A   Mostly Cloudy
12:31 PM 75.2 °F 62.6 °F 65% 30.02 in 10.0 mi Calm Calm - N/A   Mostly Cloudy
12:51 PM 75.2 °F 64.4 °F 69% 30.02 in 10.0 mi NNE 5.8 mph - N/A   Mostly Cloudy
1:12 PM 78.8 °F 62.6 °F 57% 30.02 in 10.0 mi Calm Calm - N/A   Scattered Clouds
1:31 PM 78.8 °F 64.4 °F 61% 30.01 in 10.0 mi NE 6.9 mph - N/A   Scattered Clouds
1:51 PM 78.8 °F 62.6 °F 57% 30.01 in 10.0 mi NE 4.6 mph - N/A   Scattered Clouds
2:11 PM 78.8 °F 64.4 °F 61% 30.01 in 10.0 mi NNE 3.5 mph - N/A   Mostly Cloudy
2:30 PM 78.8 °F 64.4 °F 61% 30.00 in 10.0 mi ENE 4.6 mph - N/A   Mostly Cloudy
2:52 PM 78.8 °F 64.4 °F 61% 30.01 in 10.0 mi Calm Calm - N/A   Mostly Cloudy
3:11 PM 78.8 °F 64.4 °F 61% 30.00 in 10.0 mi South 3.5 mph - N/A   Scattered Clouds
3:31 PM 78.8 °F 64.4 °F 61% 30.00 in 10.0 mi South 4.6 mph - N/A   Scattered Clouds
3:52 PM 78.8 °F 64.4 °F 61% 29.99 in 10.0 mi South 4.6 mph - N/A   Mostly Cloudy
4:11 PM 78.8 °F 66.2 °F 65% 29.99 in 10.0 mi South 5.8 mph - N/A   Scattered Clouds
4:31 PM 77.0 °F 64.4 °F 65% 29.99 in 10.0 mi Calm Calm - N/A   Scattered Clouds
4:51 PM 78.8 °F 66.2 °F 65% 29.99 in 10.0 mi WSW 5.8 mph - N/A   Scattered Clouds
5:11 PM 78.8 °F 66.2 °F 65% 29.98 in 10.0 mi SW 4.6 mph - N/A   Scattered Clouds
5:31 PM 78.8 °F 66.2 °F 65% 29.97 in 10.0 mi SSW 3.5 mph - N/A   Clear
5:51 PM 78.8 °F 66.2 °F 65% 29.96 in 10.0 mi Calm Calm - N/A   Clear
6:11 PM 78.8 °F 66.2 °F 65% 29.95 in 10.0 mi Calm Calm - N/A   Clear
6:30 PM 78.8 °F 64.4 °F 61% 29.94 in 10.0 mi Calm Calm - N/A   Scattered Clouds
6:51 PM 78.8 °F 64.4 °F 61% 29.94 in 10.0 mi Calm Calm - N/A   Scattered Clouds
7:12 PM 77.0 °F 66.2 °F 69% 29.94 in 10.0 mi Calm Calm - N/A   Clear
7:31 PM 77.0 °F 66.2 °F 69% 29.94 in 10.0 mi Calm Calm - N/A   Clear
7:53 PM 75.2 °F 66.2 °F 73% 29.94 in 10.0 mi Calm Calm - N/A   Clear
8:10 PM 75.2 °F 66.2 °F 73% 29.95 in 10.0 mi Calm Calm - N/A   Clear
8:30 PM 73.4 °F 66.2 °F 78% 29.94 in 10.0 mi Calm Calm - N/A   Clear
8:50 PM 73.4 °F 66.2 °F 78% 29.95 in 10.0 mi Calm Calm - N/A   Clear
9:15 PM 71.6 °F 66.2 °F 83% 29.95 in 10.0 mi Calm Calm - N/A   Clear
9:31 PM 69.8 °F 66.2 °F 88% 29.97 in 10.0 mi Calm Calm - N/A   Clear
9:50 PM 71.6 °F 66.2 °F 83% 29.96 in 10.0 mi Calm Calm - N/A   Clear
10:12 PM 69.8 °F 64.4 °F 83% 29.95 in 10.0 mi Calm Calm - N/A   Clear
10:31 PM 69.8 °F 64.4 °F 83% 29.95 in 10.0 mi Calm Calm - N/A   Clear
10:51 PM 68.0 °F 64.4 °F 88% 29.95 in 10.0 mi Calm Calm - N/A   Clear
11:15 PM 69.8 °F 66.2 °F 88% 29.95 in 10.0 mi South 3.5 mph - N/A   Clear
11:31 PM 69.8 °F 64.4 °F 83% 29.94 in 10.0 mi SSE 3.5 mph - N/A   Clear